Regional Weather Roundup
Issued by NWS Newport/Morehead, NC

Home | Current Version | Previous Version | Text Only | Print | Product List | Glossary On
Versions: 1 2 3 4 5 6 7 8 9 10 11 12 13 14 15 16 17 18 19 20 21 22 23 24 25 26 27 28 29 30 31 32 33 34 35 36 37 38 39 40 41 42 43 44 45 46 47 48 49 50
000
ASUS42 KMHX 210525
RWRMHX
WEATHER ROUNDUP FOR EASTERN NORTH CAROLINA
NATIONAL WEATHER SERVICE NEWPORT/MOREHEAD CITY NC
100 AM EDT MON MAY 21 2018

NOTE: "FAIR" INDICATES FEW OR NO CLOUDS BELOW 12,000 FEET
WITH NO SIGNIFICANT WEATHER AND/OR OBSTRUCTIONS TO VISIBILITY

NCZ015>017-031-032-045>047-102-103-210600-
NORTH COAST

CITY           SKY/WX    TMP DP  RH WIND       PRES   REMARKS
EDENTON        FAIR      76  72  87 SW8       30.11F
ELIZABETH CITY FAIR      75  74  96 SW9       30.09F
KITTY HAWK     FAIR      74  69  84 SW6       30.10S
MANTEO         FAIR      74  70  87 SW8       30.12R

$$

NCZ045>047-081-094-103-104-210600-
CENTRAL COAST

CITY           SKY/WX    TMP DP  RH WIND       PRES   REMARKS
FRISCO         FAIR      73  71  93 W10       30.13S

$$

NCZ095-097-098-100-101-210600-
SOUTHERN COAST

CITY           SKY/WX    TMP DP  RH WIND       PRES   REMARKS
BEAUFORT       FAIR      73  72  96 SW10      30.14S
CEDAR ISLAND   NOT AVBL
JACKSONVILLE   FAIR      71  70  96 SW3       30.12F
PINEY ISLAND   NOT AVBL
WILMINGTON     FAIR      72  69  90 S7        30.14S


$$

NCZ011>013-027>030-043-044-078>080-089-090>093-098-210600-
COASTAL PLAIN

CITY           SKY/WX    TMP DP  RH WIND       PRES   REMARKS
AHOSKIE        FAIR      73  73 100 S3        30.09S
CLINTON        CLOUDY    72  72 100 CALM      30.13S
ELIZABETHTOWN  FAIR      73  71  96 SW6       30.13F
GOLDSBORO      MOCLDY    73  70  88 SW5       30.11F
GREENVILLE     FAIR      73  72  94 SW6       30.12F
HAVELOCK       NOT AVBL
KENANSVILLE    FAIR      70  70 100 CALM      30.13S
KINSTON        FAIR      72  70  93 S6        30.13S
NEW BERN       FAIR      70  69  97 S6        30.14S
RICHLANDS      FAIR      70  69  97 S7        30.13F
ROCKY MOUNT    FAIR      74  72  93 S7        30.10F
WASHINGTON     FAIR      72  69  92 CALM      30.11F
WHITEVILLE     FAIR      72  70  92 S5        30.13S

$$

AMZ130-135-150-152-154-156-158-170-250-252-270-ANZ085-086-088-633-658-670-210600-
MARINE OBSERVATIONS

STATION/POSITION TIME  TEMP    WIND        PRES    WAVE   SWELL
                       AIR SEA DIR/SP/G            HT/PER HT/PER
                 (UTC) (F)     (DEG/KT/KT) (MB)    (FT/S) (FT/S)
CHESAPEAKE LIGHT NOT AVBL
64 E VA BEACH    0450   70 67  220/ 12/ 14 1019.2    5/ 8   3/ 8
DUCK             0500   75 56  240/ 13/ 15 1018.9
2 E DUCK         0500      62                N/A     2/ 8
OREGON INLET     0454   75 76  220/ 14/ 19 1019.5
13E OREGON INLT  0448      64                N/A     5/ 6   2/13
HATTERAS CG      0500   73 76  230/ 10/ 14 1020.0
DIAMOND BUOY     0510   75 75  220/ 16/ 19 1020.7
CAPE LOOKOUT     0500          220/  9/ 12 1020.9
BEAUFORT LAB     0500   74 77  210/  6/ 11 1020.8
30 SE NEW RVR IN 0508   75     210/ 14/ 17 1020.5
30 SE NEW RVR IN 0500      76                N/A     5/ 9   2/11
27 SE WRIGHTSVLE 0508   73 74  210/ 12/ 17 1020.8
5 SE WRIGHTSVLE  NOT AVBL
225 S CAPE HAT   0510      77  160/ 10/ 14 1022.7
41 SE CHARLESTON 0500      75  150/  2/  4 1021.2

$$




USA.gov is the U.S. government's official web portal to all federal, state and local government web resources and services.